• In Italy
  • List of Countries
  • For 7 days
  • Water Temperature
  • Satellite Maps
  • Weather Map
  • Weather Widgets
  • user-avatar
    Login

    Hourly Weather Giumri

    Today, 23 October, Tuesday

    Time Temperature Precipitation Wind Pressure Humidity
    00:00 +10°C° 0.1 mm 1 mps 635 mmHg 83%
    01:00 +10°C° 0 mm 1 mps 635 mmHg 84%
    02:00 +9°C° 0 mm 1 mps 635 mmHg 85%
    03:00 +9°C° 0 mm 2 mps 635 mmHg 87%
    04:00 +8°C° 0 mm 2 mps 634 mmHg 88%
    05:00 +9°C° 0 mm 1 mps 634 mmHg 89%
    06:00 +9°C° 0 mm 1 mps 634 mmHg 90%
    07:00 +9°C° 0 mm 2 mps 635 mmHg 85%
    08:00 +10°C° 0 mm 2 mps 635 mmHg 80%
    09:00 +12°C° 0 mm 2 mps 636 mmHg 75%
    10:00 +12°C° 0 mm 3 mps 636 mmHg 70%
    11:00 +13°C° 0 mm 3 mps 635 mmHg 65%
    12:00 +14°C° 0 mm 3 mps 635 mmHg 60%
    13:00 +14°C° 0.2 mm 3 mps 635 mmHg 58%
    14:00 +14°C° 0.2 mm 3 mps 635 mmHg 57%
    15:00 +14°C° 0.2 mm 3 mps 635 mmHg 55%
    16:00 +13°C° 0.2 mm 3 mps 634 mmHg 59%
    17:00 +13°C° 0.2 mm 2 mps 634 mmHg 64%
    18:00 +12°C° 0.2 mm 2 mps 634 mmHg 68%
    19:00 +10°C° 0 mm 2 mps 634 mmHg 70%
    20:00 +10°C° 0 mm 2 mps 634 mmHg 72%
    21:00 +10°C° 0 mm 1 mps 634 mmHg 74%
    22:00 +10°C° 0 mm 1 mps 633 mmHg 76%
    23:00 +9°C° 0 mm 1 mps 633 mmHg 78%

    Tomorrow, 24 October, Wednesday

    Time Temperature Precipitation Wind Pressure Humidity
    00:00 +9°C° 0 mm 1 mps 633 mmHg 80%
    01:00 +9°C° 0 mm 1 mps 633 mmHg 82%
    02:00 +8°C° 0 mm 2 mps 632 mmHg 83%
    03:00 +7°C° 0 mm 2 mps 632 mmHg 85%
    04:00 +7°C° 0.1 mm 2 mps 632 mmHg 85%
    05:00 +7°C° 0.1 mm 2 mps 632 mmHg 86%
    06:00 +7°C° 0.1 mm 2 mps 631 mmHg 87%
    07:00 +8°C° 0.4 mm 2 mps 632 mmHg 84%
    08:00 +9°C° 0.4 mm 3 mps 632 mmHg 80%
    09:00 +10°C° 0.4 mm 3 mps 632 mmHg 77%
    10:00 +11°C° 0.7 mm 4 mps 632 mmHg 74%
    11:00 +12°C° 0.7 mm 4 mps 631 mmHg 71%
    12:00 +13°C° 0.7 mm 5 mps 631 mmHg 69%
    13:00 +13°C° 0.7 mm 5 mps 631 mmHg 66%
    14:00 +14°C° 0.7 mm 6 mps 630 mmHg 64%
    15:00 +14°C° 0.7 mm 6 mps 630 mmHg 62%
    16:00 +13°C° 0.5 mm 6 mps 629 mmHg 66%
    17:00 +12°C° 0.5 mm 5 mps 629 mmHg 69%
    18:00 +11°C° 0.5 mm 4 mps 629 mmHg 73%
    19:00 +11°C° 0.4 mm 4 mps 629 mmHg 75%
    20:00 +11°C° 0.4 mm 4 mps 629 mmHg 77%
    21:00 +9°C° 0.4 mm 5 mps 628 mmHg 79%
    22:00 +9°C° 0.3 mm 5 mps 628 mmHg 81%
    23:00 +9°C° 0.3 mm 5 mps 628 mmHg 83%

    Day after tomorrow, 25 October, Thursday

    Time Temperature Precipitation Wind Pressure Humidity
    00:00 +9°C° 0.3 mm 5 mps 628 mmHg 85%
    01:00 +9°C° 0.2 mm 5 mps 628 mmHg 86%
    02:00 +8°C° 0.2 mm 5 mps 627 mmHg 87%
    03:00 +8°C° 0.2 mm 5 mps 627 mmHg 88%
    04:00 +8°C° 0.4 mm 5 mps 627 mmHg 88%
    05:00 +8°C° 0.4 mm 5 mps 626 mmHg 88%
    06:00 +8°C° 0.4 mm 5 mps 626 mmHg 87%
    07:00 +9°C° 0.4 mm 6 mps 626 mmHg 84%
    08:00 +10°C° 0.4 mm 6 mps 626 mmHg 80%
    09:00 +10°C° 0.4 mm 7 mps 626 mmHg 76%
    10:00 +12°C° 0.3 mm 8 mps 625 mmHg 70%
    11:00 +13°C° 0.3 mm 10 mps 625 mmHg 64%
    12:00 +14°C° 0.3 mm 11 mps 624 mmHg 58%
    13:00 +14°C° 0.9 mm 11 mps 624 mmHg 59%
    14:00 +13°C° 0.9 mm 11 mps 624 mmHg 60%
    15:00 +13°C° 0.9 mm 11 mps 624 mmHg 61%
    16:00 +12°C° 1.4 mm 9 mps 624 mmHg 66%
    17:00 +11°C° 1.4 mm 7 mps 624 mmHg 71%
    18:00 +10°C° 1.4 mm 5 mps 624 mmHg 76%
    19:00 +11°C° 1.3 mm 4 mps 624 mmHg 78%
    20:00 +10°C° 1.3 mm 3 mps 624 mmHg 81%
    21:00 +9°C° 1.3 mm 3 mps 625 mmHg 83%
    22:00 +9°C° 1.6 mm 2 mps 625 mmHg 84%
    23:00 +8°C° 1.6 mm 2 mps 625 mmHg 85%

    26 October, Friday

    Time Temperature Precipitation Wind Pressure Humidity
    00:00 +8°C° 1.6 mm 2 mps 625 mmHg 86%
    01:00 +7°C° 2 mm 3 mps 625 mmHg 87%
    02:00 +7°C° 2 mm 3 mps 625 mmHg 88%
    03:00 +5°C° 2 mm 4 mps 625 mmHg 90%
    04:00 +4°C° 1.8 mm 3 mps 625 mmHg 90%
    05:00 +4°C° 1.8 mm 3 mps 625 mmHg 91%
    06:00 +3°C° 1.8 mm 3 mps 625 mmHg 92%
    07:00 +3°C° 1.6 mm 3 mps 626 mmHg 92%
    08:00 +3°C° 1.6 mm 3 mps 626 mmHg 92%
    09:00 +3°C° 1.6 mm 2 mps 626 mmHg 93%
    10:00 +4°C° 0.8 mm 2 mps 627 mmHg 91%
    11:00 +4°C° 0.8 mm 2 mps 627 mmHg 90%
    12:00 +4°C° 0.8 mm 2 mps 627 mmHg 89%
    13:00 +4°C° 0.4 mm 2 mps 628 mmHg 88%
    14:00 +4°C° 0.4 mm 2 mps 628 mmHg 87%
    15:00 +4°C° 0.4 mm 2 mps 628 mmHg 87%
    16:00 +4°C° 0.3 mm 2 mps 629 mmHg 88%
    17:00 +3°C° 0.3 mm 2 mps 630 mmHg 88%
    18:00 +3°C° 0.3 mm 2 mps 630 mmHg 89%
    19:00 +2°C° 0 mm 2 mps 631 mmHg 89%
    20:00 +1°C° 0 mm 2 mps 631 mmHg 88%
    21:00 -1°C° 0 mm 3 mps 632 mmHg 88%
    22:00 -1°C° 0 mm 3 mps 632 mmHg 87%
    23:00 -2°C° 0 mm 2 mps 632 mmHg 86%

    27 October, Saturday

    Time Temperature Precipitation Wind Pressure Humidity
    00:00 -2°C° 0 mm 2 mps 633 mmHg 85%
    01:00 -2°C° 0 mm 2 mps 633 mmHg 85%
    02:00 -2°C° 0 mm 2 mps 634 mmHg 84%
    03:00 -2°C° 0 mm 2 mps 634 mmHg 83%
    04:00 -2°C° 0 mm 2 mps 634 mmHg 83%
    05:00 -3°C° 0 mm 2 mps 635 mmHg 83%
    06:00 -3°C° 0 mm 2 mps 635 mmHg 83%
    07:00 -1°C° 0 mm 2 mps 636 mmHg 82%
    08:00 +1°C° 0 mm 2 mps 636 mmHg 81%
    09:00 +2°C° 0 mm 2 mps 637 mmHg 80%
    10:00 +4°C° 0 mm 2 mps 637 mmHg 79%
    11:00 +5°C° 0 mm 2 mps 637 mmHg 78%
    12:00 +6°C° 0 mm 2 mps 637 mmHg 77%
    13:00 +7°C° 0 mm 1 mps 637 mmHg 75%
    14:00 +7°C° 0 mm 1 mps 637 mmHg 74%
    15:00 +8°C° 0 mm 1 mps 637 mmHg 72%
    16:00 +6°C° 0 mm 1 mps 637 mmHg 72%
    17:00 +4°C° 0 mm 1 mps 637 mmHg 73%
    18:00 +2°C° 0 mm 0 mps 637 mmHg 74%
    19:00 +2°C° 0 mm 0 mps 637 mmHg 73%
    20:00 +1°C° 0 mm 0 mps 637 mmHg 73%
    21:00 +1°C° 0 mm 0 mps 637 mmHg 73%
    22:00 +1°C° 0 mm 0 mps 638 mmHg 73%
    23:00 +1°C° 0 mm 0 mps 638 mmHg 72%

    28 October, Sunday

    Time Temperature Precipitation Wind Pressure Humidity
    00:00 +1°C° 0 mm 0 mps 638 mmHg 72%
    01:00 0°C° 0 mm 0 mps 638 mmHg 72%
    02:00 +1°C° 0 mm 1 mps 638 mmHg 71%
    03:00 +1°C° 0 mm 1 mps 638 mmHg 71%
    04:00 +1°C° 0 mm 1 mps 638 mmHg 70%
    05:00 +1°C° 0 mm 1 mps 638 mmHg 68%
    06:00 +1°C° 0 mm 1 mps 638 mmHg 67%
    07:00 +3°C° 0 mm 1 mps 638 mmHg 66%
    08:00 +4°C° 0 mm 1 mps 639 mmHg 66%
    09:00 +6°C° 0 mm 1 mps 639 mmHg 65%
    10:00 +7°C° 0 mm 1 mps 639 mmHg 66%
    11:00 +8°C° 0 mm 1 mps 639 mmHg 67%
    12:00 +9°C° 0 mm 1 mps 639 mmHg 68%
    13:00 +10°C° 0 mm 1 mps 639 mmHg 64%
    14:00 +10°C° 0 mm 1 mps 639 mmHg 61%
    15:00 +10°C° 0 mm 1 mps 639 mmHg 58%
    16:00 +8°C° 0 mm 1 mps 638 mmHg 57%
    17:00 +7°C° 0 mm 1 mps 638 mmHg 57%
    18:00 +5°C° 0 mm 1 mps 638 mmHg 57%
    19:00 +5°C° 0 mm 1 mps 638 mmHg 56%
    20:00 +5°C° 0 mm 1 mps 638 mmHg 56%
    21:00 +5°C° 0 mm 1 mps 638 mmHg 55%
    22:00 +4°C° 0 mm 1 mps 638 mmHg 54%
    23:00 +4°C° 0 mm 1 mps 638 mmHg 54%

    29 October, Monday

    Time Temperature Precipitation Wind Pressure Humidity
    00:00 +4°C° 0 mm 1 mps 638 mmHg 53%
    01:00 +4°C° 0 mm 1 mps 638 mmHg 52%
    02:00 +4°C° 0 mm 1 mps 638 mmHg 51%
    03:00 +4°C° 0 mm 1 mps 637 mmHg 50%
    04:00 +4°C° 0 mm 1 mps 637 mmHg 49%
    05:00 +4°C° 0 mm 1 mps 637 mmHg 48%
    06:00 +4°C° 0 mm 1 mps 637 mmHg 48%
    07:00 +5°C° 0 mm 1 mps 638 mmHg 49%
    08:00 +7°C° 0 mm 1 mps 638 mmHg 50%
    09:00 +8°C° 0 mm 1 mps 638 mmHg 51%
    10:00 +9°C° 0 mm 1 mps 639 mmHg 53%
    11:00 +11°C° 0 mm 1 mps 639 mmHg 54%
    12:00 +12°C° 0 mm 1 mps 639 mmHg 55%
    13:00 +12°C° 0 mm 1 mps 638 mmHg 53%
    14:00 +12°C° 0 mm 1 mps 638 mmHg 50%
    15:00 +12°C° 0 mm 1 mps 638 mmHg 47%
    16:00 +10°C° 0 mm 1 mps 638 mmHg 47%
    17:00 +9°C° 0 mm 1 mps 637 mmHg 48%
    18:00 +7°C° 0 mm 1 mps 637 mmHg 49%
    19:00 +7°C° 0 mm 1 mps 637 mmHg 48%
    20:00 +6°C° 0 mm 1 mps 637 mmHg 48%
    21:00 +6°C° 0 mm 1 mps 637 mmHg 48%
    22:00 +6°C° 0 mm 1 mps 637 mmHg 48%
    23:00 +5°C° 0 mm 1 mps 637 mmHg 48%
    Show more